Tracking 29932 objects as of 3-Dec-2024
HD Live streaming from Space Station
objects crossing your sky now

STARLINK-31176

Track STARLINK-31176 now!
10-day predictions
STARLINK-31176 is classified as:


NORAD ID: 58745
Int'l Code: 2024-005T
Perigee: 566.1 km
Apogee: 566.8 km
Inclination: 43.0 °
Period: 95.8 minutes
Semi major axis: 6937 km
RCS: Unknown
Launch date: January 7, 2024
Source: United States (US)
Launch site: AIR FORCE EASTERN TEST RANGE (AFETR)
Your satellite tracking list
Your tracking list is empty




NASA's NSSDC Master Catalog

Two Line Element Set (TLE):
1 58745U 24005T   24338.00749950  .00017293  00000-0  12948-2 0  9992
2 58745  43.0023 210.1984 0000455 265.2816  94.7974 15.02456169 50972
Source of the keplerian elements: AFSPC